Date String (YYYY-MM-DD hh:mm:ss) UTC,Instrument flags,Ambient pressure (hPa),Sample flow (lpm),Bypass flow (lpm),Sample temperature (°C),Ambient temperature (°C),ASC tube jacket temperature (°C),LED temperature (°C),Box temperature (°C),Sample RH (%),Span deviation,Mass concentration (μg/m³),Mass concentration (μg/m³),Mass concentration (μg/m³)
DateTimeUTC,F1_M11,P_M11,Q1_M11,Q2_M11,T1_M11,T2_M11,T3_M11,T4_M11,T5_M11,U1_M11,ZSPAN_M11,X0_M11,X2_M11,X1_M11
2021-12-22 05:00:00,,0822.6,5.01,0.00,24.2,23.5,00.0,33.2,25.9,03.3,0000.0,0000.95,0000.50,0000.31
2021-12-22 05:01:00,,0822.7,4.99,0.00,24.2,23.5,00.0,33.2,25.9,03.3,0000.0,0000.93,0000.49,0000.30
2021-12-22 05:02:00,,0822.7,5.01,0.00,24.2,23.5,00.0,33.2,26.0,03.3,0000.0,0000.85,0000.46,0000.30
2021-12-22 05:03:00,,0822.6,5.00,0.00,24.2,23.5,00.0,33.2,26.0,03.4,0000.0,0000.87,0000.47,0000.31
2021-12-22 05:04:00,,0822.6,4.99,0.00,24.2,23.5,00.0,33.2,26.0,03.4,0000.0,0000.89,0000.50,0000.33
2021-12-22 05:05:00,,0822.6,5.01,0.00,24.3,23.5,00.0,33.2,26.0,03.5,0000.0,0000.89,0000.51,0000.35
2021-12-22 05:06:00,,0822.6,4.99,0.00,24.3,23.6,00.0,33.2,26.1,03.4,0000.0,0000.95,0000.55,0000.38
2021-12-22 05:07:00,,0822.5,5.01,0.00,24.3,23.6,00.0,33.2,26.1,03.3,0000.0,0001.00,0000.58,0000.39
2021-12-22 05:08:00,,0822.6,5.00,0.00,24.3,23.6,00.0,33.2,26.0,03.2,0000.0,0000.90,0000.56,0000.39
2021-12-22 05:09:00,,0822.7,5.00,0.00,24.3,23.6,00.0,33.2,26.0,03.3,0000.0,0000.89,0000.55,0000.39
2021-12-22 05:10:00,,0822.6,5.01,0.00,24.3,23.6,00.0,33.2,26.0,03.3,0000.0,0000.96,0000.59,0000.40
2021-12-22 05:11:00,,0822.6,4.99,0.00,24.3,23.6,00.0,33.3,26.1,03.3,0000.0,0000.95,0000.58,0000.40
2021-12-22 05:12:00,,0822.6,5.02,0.00,24.3,23.6,00.0,33.3,26.1,03.3,0000.0,0000.94,0000.58,0000.41
2021-12-22 05:13:00,,0822.6,4.98,0.00,24.3,23.6,00.0,33.3,26.1,03.3,0000.0,0000.93,0000.58,0000.42
2021-12-22 05:14:00,,0822.6,5.01,0.00,24.4,23.6,00.0,33.3,26.2,03.2,0000.0,0000.93,0000.58,0000.42
2021-12-22 05:15:00,,0822.6,4.99,0.00,24.4,23.6,00.0,33.3,26.2,03.2,0000.0,0000.91,0000.56,0000.40
2021-12-22 05:16:00,,0822.6,5.00,0.00,24.4,23.6,00.0,33.3,26.1,03.2,0000.0,0000.90,0000.54,0000.39
2021-12-22 05:17:00,,0822.7,4.99,0.00,24.4,23.6,00.0,33.3,26.1,03.2,0000.0,0000.87,0000.52,0000.38
2021-12-22 05:18:00,,0822.7,5.00,0.00,24.4,23.6,00.0,33.3,26.1,03.2,0000.0,0000.83,0000.50,0000.37
2021-12-22 05:19:00,,0822.8,4.99,0.00,24.3,23.6,00.0,33.3,26.0,03.3,0000.0,0000.84,0000.51,0000.38
2021-12-22 05:20:00,,0822.7,5.02,0.00,24.3,23.5,00.0,33.3,26.0,03.4,0000.0,0000.86,0000.53,0000.40
2021-12-22 05:21:00,,0822.6,5.00,0.00,24.3,23.5,00.0,33.3,26.0,03.4,0000.0,0000.78,0000.50,0000.41
2021-12-22 05:22:00,,0822.7,5.00,0.00,24.3,23.5,00.0,33.3,26.0,03.4,0000.0,0000.78,0000.51,0000.42
2021-12-22 05:23:00,,0822.8,4.99,0.00,24.3,23.5,00.0,33.3,26.0,03.4,0000.0,0000.80,0000.52,0000.42
2021-12-22 05:24:00,,0822.7,5.01,0.00,24.3,23.5,00.0,33.3,26.0,03.4,0000.0,0000.80,0000.53,0000.42
2021-12-22 05:25:00,,0822.7,5.00,0.00,24.3,23.5,00.0,33.3,26.0,03.4,0000.0,0001.05,0000.55,0000.44
2021-12-22 05:26:00,,0822.8,4.98,0.00,24.3,23.5,00.0,33.3,26.0,03.5,0000.0,0000.99,0000.56,0000.47
2021-12-22 05:27:00,,0822.8,5.01,0.00,24.3,23.5,00.0,33.3,26.0,03.4,0000.0,0000.99,0000.57,0000.48
2021-12-22 05:28:00,,0822.8,4.99,0.00,24.3,23.5,00.0,33.3,26.0,03.5,0000.0,0001.07,0000.61,0000.50
2021-12-22 05:29:00,,0822.7,4.99,0.00,24.2,23.4,00.0,33.3,25.9,03.5,0000.0,0001.29,0000.68,0000.52
2021-12-22 05:30:00,,0822.7,5.01,0.00,24.2,23.4,00.0,33.3,25.9,03.5,0000.0,0001.39,0000.70,0000.53
2021-12-22 05:31:00,,0822.7,5.00,0.00,24.2,23.4,00.0,33.3,25.9,03.5,0000.0,0001.42,0000.72,0000.54
2021-12-22 05:32:00,,0822.6,5.00,0.00,24.2,23.3,00.0,33.3,25.9,03.4,0000.0,0001.50,0000.75,0000.55
2021-12-22 05:33:00,,0822.7,5.02,0.00,24.2,23.3,00.0,33.2,25.9,03.4,0000.0,0003.01,0000.79,0000.56
2021-12-22 05:34:00,,0822.7,4.99,0.00,24.2,23.3,00.0,33.2,25.9,03.4,0000.0,0003.12,0000.82,0000.56
2021-12-22 05:35:00,,0822.8,5.01,0.00,24.2,23.4,00.0,33.2,25.9,03.5,0000.0,0003.16,0000.84,0000.58
2021-12-22 05:36:00,,0822.8,5.00,0.00,24.1,23.3,00.0,33.2,25.8,03.5,0000.0,0003.01,0000.85,0000.58
2021-12-22 05:37:00,,0822.7,5.01,0.00,24.1,23.3,00.0,33.2,25.7,03.5,0000.0,0003.10,0000.87,0000.59
2021-12-22 05:38:00,,0822.7,4.99,0.00,24.1,23.3,00.0,33.2,25.7,03.5,0000.0,0003.14,0000.90,0000.60
2021-12-22 05:39:00,,0822.7,5.00,0.00,24.1,23.3,00.0,33.2,25.7,03.5,0000.0,0003.08,0000.90,0000.62
2021-12-22 05:40:00,,0822.7,5.01,0.00,24.1,23.3,00.0,33.2,25.9,03.5,0000.0,0002.95,0000.87,0000.62
2021-12-22 05:41:00,,0822.7,5.00,0.00,24.1,23.3,00.0,33.2,25.9,03.4,0000.0,0002.88,0000.86,0000.63
2021-12-22 05:42:00,,0822.7,4.99,0.00,24.1,23.4,00.0,33.2,25.9,03.4,0000.0,0002.96,0000.89,0000.63
2021-12-22 05:43:00,,0822.7,5.01,0.00,24.1,23.4,00.0,33.2,25.9,03.4,0000.0,0002.97,0000.88,0000.63
2021-12-22 05:44:00,,0822.7,5.01,0.00,24.1,23.4,00.0,33.1,25.9,03.3,0000.0,0002.30,0000.85,0000.62
2021-12-22 05:45:00,,0822.7,5.01,0.00,24.2,23.4,00.0,33.1,26.0,03.3,0000.0,0002.72,0000.84,0000.62
2021-12-22 05:46:00,,0822.7,4.99,0.00,24.2,23.4,00.0,33.1,26.0,03.3,0000.0,0002.71,0000.83,0000.61
2021-12-22 05:47:00,,0822.8,5.01,0.00,24.2,23.4,00.0,33.1,26.0,03.3,0000.0,0002.74,0000.83,0000.61
2021-12-22 05:48:00,,0822.9,4.99,0.00,24.2,23.5,00.0,33.1,25.9,03.4,0000.0,0002.89,0000.86,0000.61
2021-12-22 05:49:00,,0823.0,5.00,0.00,24.2,23.4,00.0,33.1,25.9,03.4,0000.0,0003.43,0000.91,0000.60
2021-12-22 05:50:00,,0822.9,5.00,0.00,24.2,23.4,00.0,33.1,25.9,03.4,0000.0,0004.45,0000.93,0000.58
2021-12-22 05:51:00,,0822.8,4.99,0.00,24.2,23.4,00.0,33.1,25.9,03.4,0000.0,0004.99,0000.95,0000.57
2021-12-22 05:52:00,,0822.8,5.00,0.00,24.2,23.4,00.0,33.2,26.0,03.5,0000.0,0005.15,0000.96,0000.57
2021-12-22 05:53:00,,0822.7,5.00,0.00,24.2,23.4,00.0,33.2,26.0,03.5,0000.0,0006.24,0001.01,0000.59
2021-12-22 05:54:00,,0822.7,5.01,0.00,24.2,23.4,00.0,33.2,25.9,03.5,0000.0,0006.23,0001.03,0000.60
2021-12-22 05:55:00,,0822.7,5.01,0.00,24.2,23.5,00.0,33.2,25.9,03.5,0000.0,0006.00,0001.06,0000.60
2021-12-22 05:56:00,,0822.7,4.98,0.00,24.2,23.5,00.0,33.2,26.0,03.5,0000.0,0005.07,0001.06,0000.60
2021-12-22 05:57:00,,0822.8,5.01,0.00,24.2,23.5,00.0,33.2,25.9,03.4,0000.0,0005.06,0001.05,0000.60
2021-12-22 05:58:00,,0822.8,4.99,0.00,24.2,23.4,00.0,33.2,25.9,03.4,0000.0,0004.99,0001.03,0000.60
2021-12-22 05:59:00,,0822.8,5.00,0.00,24.2,23.4,00.0,33.2,25.9,03.4,0000.0,0004.80,0000.98,0000.60
